When you browse on this site, cookies collect data to enhance your experience and personalize the content and advertising you see.
Visit our Privacy Policy to learn more. By continuing to use the site, you agree to this use of cookies and data.
  • en Suisse
  • Liste des pays
  • À 7 jours
  • Température de l'eau
  • Carte satellitaire
  • Carte météo
  • Widgets météo
  • user-avatar
    Se connecter

    Météo par heure à Tiranё

    Ce jour, 22 Mai, Mercredi

    Heure Température Précipitation Vent Pression Humidité
    00:00 +16°C° 0 mm 3 m/s 754 mmHg 74%
    01:00 +14°C° 0 mm 3 m/s 754 mmHg 73%
    02:00 +14°C° 0 mm 3 m/s 754 mmHg 72%
    03:00 +14°C° 0 mm 3 m/s 754 mmHg 71%
    04:00 +14°C° 0 mm 3 m/s 754 mmHg 70%
    05:00 +16°C° 0 mm 2 m/s 754 mmHg 67%
    06:00 +18°C° 0 mm 2 m/s 754 mmHg 64%
    07:00 +19°C° 0 mm 2 m/s 754 mmHg 61%
    08:00 +20°C° 0 mm 2 m/s 754 mmHg 59%
    09:00 +21°C° 0 mm 2 m/s 754 mmHg 57%
    10:00 +23°C° 0 mm 2 m/s 754 mmHg 55%
    11:00 +22°C° 0 mm 3 m/s 754 mmHg 56%
    12:00 +22°C° 0 mm 3 m/s 754 mmHg 57%
    13:00 +24°C° 0 mm 3 m/s 754 mmHg 58%
    14:00 +22°C° 0 mm 3 m/s 754 mmHg 59%
    15:00 +22°C° 0 mm 3 m/s 753 mmHg 60%
    16:00 +22°C° 0 mm 3 m/s 753 mmHg 61%
    17:00 +20°C° 0 mm 2 m/s 753 mmHg 66%
    18:00 +19°C° 0 mm 2 m/s 753 mmHg 71%
    19:00 +18°C° 0 mm 1 m/s 753 mmHg 76%
    20:00 +18°C° 0 mm 1 m/s 754 mmHg 77%
    21:00 +16°C° 0 mm 1 m/s 754 mmHg 77%
    22:00 +16°C° 0 mm 1 m/s 754 mmHg 77%
    23:00 +15°C° 0 mm 1 m/s 754 mmHg 75%

    Demain, 23 Mai, Jeudi

    Heure Température Précipitation Vent Pression Humidité
    00:00 +15°C° 0 mm 1 m/s 754 mmHg 73%
    01:00 +15°C° 0 mm 1 m/s 754 mmHg 72%
    02:00 +15°C° 0 mm 1 m/s 754 mmHg 70%
    03:00 +15°C° 0 mm 1 m/s 753 mmHg 69%
    04:00 +14°C° 0 mm 1 m/s 753 mmHg 68%
    05:00 +16°C° 0 mm 1 m/s 753 mmHg 64%
    06:00 +18°C° 0 mm 1 m/s 753 mmHg 61%
    07:00 +20°C° 0 mm 1 m/s 753 mmHg 57%
    08:00 +21°C° 0 mm 1 m/s 753 mmHg 55%
    09:00 +21°C° 0 mm 2 m/s 753 mmHg 52%
    10:00 +24°C° 0 mm 2 m/s 753 mmHg 50%
    11:00 +24°C° 0 mm 3 m/s 753 mmHg 50%
    12:00 +24°C° 0 mm 3 m/s 753 mmHg 50%
    13:00 +23°C° 0 mm 4 m/s 752 mmHg 51%
    14:00 +23°C° 0 mm 4 m/s 752 mmHg 54%
    15:00 +22°C° 0 mm 4 m/s 752 mmHg 56%
    16:00 +21°C° 0 mm 4 m/s 751 mmHg 59%
    17:00 +19°C° 0 mm 4 m/s 751 mmHg 66%
    18:00 +18°C° 0 mm 3 m/s 752 mmHg 72%
    19:00 +16°C° 0 mm 3 m/s 752 mmHg 78%
    20:00 +16°C° 0 mm 2 m/s 752 mmHg 79%
    21:00 +16°C° 0 mm 2 m/s 752 mmHg 79%
    22:00 +16°C° 0 mm 1 m/s 752 mmHg 80%
    23:00 +15°C° 0 mm 1 m/s 752 mmHg 80%

    Après-demain, 24 Mai, Vendredi

    Heure Température Précipitation Vent Pression Humidité
    00:00 +15°C° 0 mm 1 m/s 752 mmHg 79%
    01:00 +15°C° 0 mm 1 m/s 752 mmHg 79%
    02:00 +15°C° 0 mm 1 m/s 751 mmHg 81%
    03:00 +14°C° 0 mm 0 m/s 751 mmHg 83%
    04:00 +13°C° 0 mm 0 m/s 751 mmHg 85%
    05:00 +15°C° 0 mm 1 m/s 751 mmHg 81%
    06:00 +18°C° 0 mm 1 m/s 751 mmHg 78%
    07:00 +19°C° 0 mm 1 m/s 751 mmHg 74%
    08:00 +20°C° 0 mm 1 m/s 751 mmHg 71%
    09:00 +21°C° 0 mm 1 m/s 751 mmHg 67%
    10:00 +22°C° 0 mm 1 m/s 751 mmHg 63%
    11:00 +23°C° 0 mm 2 m/s 751 mmHg 63%
    12:00 +22°C° 0 mm 4 m/s 751 mmHg 62%
    13:00 +23°C° 0 mm 5 m/s 751 mmHg 62%
    14:00 +22°C° 0 mm 5 m/s 751 mmHg 63%
    15:00 +22°C° 0 mm 4 m/s 750 mmHg 64%
    16:00 +21°C° 0 mm 4 m/s 750 mmHg 65%
    17:00 +20°C° 0 mm 3 m/s 751 mmHg 71%
    18:00 +18°C° 0 mm 2 m/s 751 mmHg 78%
    19:00 +18°C° 0 mm 1 m/s 751 mmHg 84%
    20:00 +16°C° 0 mm 1 m/s 751 mmHg 85%
    21:00 +15°C° 0 mm 0 m/s 752 mmHg 87%
    22:00 +15°C° 0 mm 0 m/s 752 mmHg 88%
    23:00 +15°C° 0 mm 1 m/s 752 mmHg 89%

    25 Mai, Samedi

    Heure Température Précipitation Vent Pression Humidité
    00:00 +15°C° 0 mm 1 m/s 752 mmHg 89%
    01:00 +15°C° 0 mm 1 m/s 752 mmHg 89%
    02:00 +15°C° 0 mm 1 m/s 753 mmHg 89%
    03:00 +14°C° 0 mm 2 m/s 753 mmHg 88%
    04:00 +14°C° 0 mm 2 m/s 753 mmHg 88%
    05:00 +16°C° 0 mm 2 m/s 753 mmHg 81%
    06:00 +17°C° 0 mm 2 m/s 753 mmHg 75%
    07:00 +19°C° 0 mm 2 m/s 753 mmHg 68%
    08:00 +20°C° 0 mm 2 m/s 753 mmHg 64%
    09:00 +21°C° 0 mm 2 m/s 754 mmHg 59%
    10:00 +24°C° 0 mm 2 m/s 754 mmHg 55%
    11:00 +24°C° 0 mm 2 m/s 754 mmHg 55%
    12:00 +25°C° 0 mm 3 m/s 754 mmHg 54%
    13:00 +25°C° 0 mm 3 m/s 753 mmHg 54%
    14:00 +25°C° 0 mm 3 m/s 753 mmHg 55%
    15:00 +24°C° 0 mm 3 m/s 753 mmHg 57%
    16:00 +24°C° 0 mm 3 m/s 753 mmHg 59%
    17:00 +21°C° 0 mm 2 m/s 753 mmHg 66%
    18:00 +21°C° 0 mm 1 m/s 754 mmHg 73%
    19:00 +17°C° 0 mm 0 m/s 754 mmHg 79%
    20:00 +19°C° 0 mm 1 m/s 754 mmHg 80%
    21:00 +18°C° 0 mm 1 m/s 754 mmHg 81%
    22:00 +18°C° 0 mm 1 m/s 755 mmHg 82%
    23:00 +18°C° 0 mm 1 m/s 755 mmHg 83%

    26 Mai, Dimanche

    Heure Température Précipitation Vent Pression Humidité
    00:00 +16°C° 0 mm 1 m/s 755 mmHg 83%
    01:00 +16°C° 0 mm 1 m/s 755 mmHg 83%
    02:00 +16°C° 0 mm 1 m/s 754 mmHg 82%
    03:00 +15°C° 0 mm 1 m/s 754 mmHg 82%
    04:00 +15°C° 0 mm 1 m/s 754 mmHg 81%
    05:00 +18°C° 0 mm 1 m/s 754 mmHg 74%
    06:00 +20°C° 0 mm 1 m/s 754 mmHg 68%
    07:00 +21°C° 0 mm 1 m/s 754 mmHg 62%
    08:00 +23°C° 0 mm 1 m/s 754 mmHg 57%
    09:00 +24°C° 0 mm 2 m/s 754 mmHg 52%
    10:00 +25°C° 0 mm 2 m/s 754 mmHg 48%
    11:00 +26°C° 0 mm 2 m/s 754 mmHg 47%
    12:00 +26°C° 0 mm 2 m/s 754 mmHg 47%
    13:00 +26°C° 0 mm 3 m/s 754 mmHg 46%
    14:00 +26°C° 0 mm 3 m/s 754 mmHg 48%
    15:00 +26°C° 0 mm 3 m/s 753 mmHg 50%
    16:00 +25°C° 0 mm 3 m/s 753 mmHg 52%
    17:00 +24°C° 0 mm 2 m/s 753 mmHg 59%
    18:00 +21°C° 0 mm 2 m/s 753 mmHg 65%
    19:00 +19°C° 0 mm 2 m/s 753 mmHg 72%
    20:00 +19°C° 0 mm 2 m/s 754 mmHg 73%
    21:00 +18°C° 0 mm 2 m/s 754 mmHg 73%
    22:00 +18°C° 0 mm 2 m/s 754 mmHg 74%
    23:00 +18°C° 0 mm 1 m/s 754 mmHg 73%

    27 Mai, Lundi

    Heure Température Précipitation Vent Pression Humidité
    00:00 +18°C° 0 mm 1 m/s 754 mmHg 72%
    01:00 +18°C° 0 mm 1 m/s 753 mmHg 71%
    02:00 +18°C° 0 mm 1 m/s 753 mmHg 68%
    03:00 +18°C° 0 mm 1 m/s 753 mmHg 66%
    04:00 +18°C° 0 mm 1 m/s 753 mmHg 63%
    05:00 +20°C° 0 mm 1 m/s 753 mmHg 59%
    06:00 +21°C° 0 mm 1 m/s 753 mmHg 55%
    07:00 +23°C° 0 mm 1 m/s 754 mmHg 50%
    08:00 +25°C° 0 mm 1 m/s 753 mmHg 46%
    09:00 +27°C° 0 mm 2 m/s 753 mmHg 41%
    10:00 +28°C° 0 mm 2 m/s 753 mmHg 37%
    11:00 +29°C° 0 mm 2 m/s 753 mmHg 36%
    12:00 +30°C° 0 mm 3 m/s 753 mmHg 36%
    13:00 +31°C° 0 mm 3 m/s 752 mmHg 35%
    14:00 +31°C° 0 mm 3 m/s 752 mmHg 39%
    15:00 +30°C° 0 mm 3 m/s 752 mmHg 42%
    16:00 +30°C° 0 mm 4 m/s 751 mmHg 45%
    17:00 +27°C° 0 mm 3 m/s 751 mmHg 51%
    18:00 +25°C° 0 mm 2 m/s 752 mmHg 57%
    19:00 +23°C° 0 mm 1 m/s 752 mmHg 63%
    20:00 +23°C° 0 mm 1 m/s 752 mmHg 62%
    21:00 +21°C° 0 mm 2 m/s 752 mmHg 61%
    22:00 +21°C° 0 mm 3 m/s 753 mmHg 60%
    23:00 +21°C° 0 mm 2 m/s 752 mmHg 62%
    Voir plus